Location: Bailen
(14.1842°N, 120.7958°E)
Time: 17:42:12
(UTC+00:00)

UNK - Pass Details

Date: 12 January 2026
Orbit: 654 x 673 km, 98.4° (Epoch: 17 February)

Event Time Altitude Azimuth Distance (km) Brightness Sun altitude
Rises 20:25:49 0° 160° (SSE) 3,004 7.6 -28.0°
Reaches altitude 10° 20:28:04 10° 156° (SSE) 2,089 6.7 -27.5°
Maximum altitude 20:32:33 59° 77° (ENE) 769 4.1 -26.4°
Enters shadow 20:33:32 47° 28° (NNE) 880 4.3 -26.2°
